[[{"header":{"parameterUnit":"m.s-1","parameterCategory":1,"la1":30.2991,"la2":30.254,"lo1":-89.0895,"lo2":-89.0444,"dy":0.0017,"dx":0.0017,"nx":28,"ny":28,"refTime":"2026-01-30T03:00:00:Z","depth":0,"parameterNumber":2,"parameterNumberName":"U-component_of_WINDS"},"data":[0,0,0,0,0,0,0,0,0,0,0,0,0,0,0,0,0,0,0,0,0,0,0,0,0,0,0,0,0,0,0,0,0,0,0,0,0,0,0,0,0,0,0,0,0,0,0,0,0,0,0,0,0,0,0,0,0,0,0.0966,0.0967,0,0.0993,0.0993,0.0994,0.0994,0.0994,0.0993,0.0993,0.1021,0.1022,0.1023,0,0,0,0,0,0,0,0,0,0,0,0,0,0.0918,0.0919,0.0966,0.0967,0.0967,0.0993,0.0993,0.0994,0.0994,0.0994,0.0993,0.0993,0.102,0.1021,0.1023,0,0,0,0,0,0,0,0,0,0,0,0,0,0.0941,0.0919,0.0966,0.097,0.0971,0.0993,0.0993,0.0994,0.0994,0.0994,0.0993,0.0993,0.102,0.1021,0.1023,0.1043,0,0,0.1028,0.1028,0,0,0,0,0,0,0,0,0.094,0.0943,0.0969,0.097,0.0971,0.099,0.0986,0.101,0.0994,0.0985,0.0993,0.0992,0.1011,0.1013,0.1019,0.1044,0.1045,0.1028,0.1029,0.1029,0.103,0,0,0,0,0,0,0,0.0938,0.0942,0.0977,0.097,0.0971,0.0972,0.0974,0.0991,0.1001,0.0986,0.0986,0.0989,0.1011,0.1018,0.102,0.1046,0.1028,0.1029,0.103,0.1031,0.1091,0.1091,0,0,0,0,0,0,0.0936,0.0941,0.0976,0.0978,0.0954,0.0973,0.0976,0.0984,0.1,0.1002,0.099,0.0989,0.1015,0.1018,0.1021,0.1047,0.1029,0.1031,0.1032,0.109,0.1091,0.1092,0,0,0,0,0,0,0.0935,0.0939,0.0975,0.0959,0.0964,0.0974,0.0983,0.0985,0.0991,0.1003,0.1005,0.0995,0.1015,0.1019,0.1038,0.1048,0.1032,0.1033,0.1089,0.109,0.1091,0.1098,0,0,0,0,0,0,0.0933,0.0938,0.0945,0.0959,0.0965,0.0991,0.0984,0.0986,0.0994,0.0994,0.1008,0.101,0.1015,0.1035,0.1039,0.105,0.1034,0.1088,0.109,0.1091,0.1097,0.1099,0.1101,0,0,0,0,0,0.0932,0.0946,0.0946,0.095,0.0974,0.0992,0.0995,0.1,0.0995,0.1003,0.1011,0.101,0.1046,0.1037,0.1042,0.1053,0.1088,0.1089,0.1091,0.1096,0.1099,0.1101,0,0,0,0,0,0,0.0933,0.0948,0.0948,0.0967,0.0978,0.0992,0.1001,0.1002,0.1015,0.1014,0.102,0.1023,0.1043,0.1049,0.104,0.1074,0.1066,0.1069,0.1069,0.1072,0.1074,0.1072,0.1036,0,0,0,0,0,0.0935,0.0948,0.0961,0.0976,0.0982,0.0991,0.0999,0.1002,0.1014,0.1018,0.1027,0.1039,0.1054,0.1063,0.1076,0.1098,0.1102,0.1108,0.111,0.1111,0.1114,0.1128,0.1131,0.1096,0.1096,0.1096,0,0,0.094,0.095,0.0958,0.0977,0.0986,0.1,0.0995,0.1009,0.102,0.102,0.104,0.1047,0.1061,0.1082,0.1092,0.1088,0.1124,0.1113,0.1114,0.1116,0.113,0.1133,0.1136,0.1097,0.1097,0.1097,0,0,0.0958,0.0965,0.0981,0.099,0.1004,0.101,0.1014,0.1028,0.1033,0.1052,0.1053,0.1067,0.109,0.1101,0.1109,0.1133,0.1133,0.1137,0.1148,0.1162,0.1165,0.1167,0.1178,0.1181,0.1139,0.1139,0.1139,0,0.0962,0.0983,0.0988,0.1004,0.1013,0.1014,0.1031,0.1039,0.1057,0.1064,0.1059,0.1091,0.11,0.1125,0.1131,0.1137,0.1143,0.1136,0.1164,0.1166,0.1169,0.1179,0.1183,0.1139,0.1139,0.1139,0.1139,0,0.099,0.1005,0.1015,0.1033,0.1043,0.1059,0.1067,0.1077,0.108,0.1087,0.1108,0.1119,0.1136,0.1142,0.1144,0.1168,0.1166,0.1162,0.1155,0.1173,0.1182,0.1186,0.114,0.114,0.114,0.114,0,0,0.1008,0.1029,0.1033,0.1043,0.1059,0.1071,0.1087,0.1104,0.1114,0.1126,0.1141,0.1162,0.116,0.117,0.1173,0.1186,0.1206,0.1181,0.1182,0.1187,0.1236,0.124,0.1244,0.1206,0.1207,0.1208,0.1236,0,0.1028,0.1057,0.1063,0.1089,0.1104,0.1106,0.1121,0.1133,0.1141,0.1155,0.1163,0.1179,0.1174,0.118,0.1192,0.1201,0.1217,0.1199,0.1222,0.1223,0.1221,0.1249,0.1252,0.1278,0.1239,0.124,0.124,0,0.1055,0.107,0.1097,0.1114,0.112,0.1133,0.1151,0.1164,0.1178,0.1183,0.1195,0.1198,0.1217,0.1208,0.1235,0.1223,0.1233,0.1239,0.124,0.1244,0.1234,0.1255,0.1286,0.1291,0.1246,0.1246,0.1245,0,0.1068,0.1094,0.1115,0.1122,0.1141,0.1151,0.1159,0.1173,0.1184,0.1199,0.1207,0.1224,0.1233,0.1247,0.1255,0.1248,0.1283,0.1274,0.1289,0.1289,0.1297,0.1296,0.1332,0.13,0.13,0.13,0.13,0,0.1091,0.1108,0.1121,0.1134,0.1154,0.1161,0.1181,0.1189,0.1202,0.1218,0.122,0.1235,0.1244,0.126,0.1266,0.129,0.1293,0.1299,0.1301,0.13,0.1299,0.1307,0.1306,0.1301,0.1301,0.1301,0.13,0,0.1109,0.1118,0.1141,0.1158,0.1162,0.1177,0.1192,0.1205,0.1213,0.1232,0.1237,0.125,0.127,0.1279,0.1302,0.1307,0.1334,0.1333,0.1329,0.133,0.1345,0.1345,0.1388,0.1396,0.1357,0.1358,0.1358,0,0.1123,0.1137,0.1156,0.1167,0.1176,0.1192,0.1204,0.1212,0.1224,0.1243,0.1254,0.1274,0.1291,0.1322,0.1334,0.1353,0.1354,0.1368,0.1357,0.1357,0.1357,0.1357,0.136,0.1371,0.1371,0.1371,0.1372,0,0.1149,0.1153,0.1169,0.1188,0.1202,0.1216,0.1231,0.124,0.125,0.1264,0.1284,0.1297,0.1323,0.1343,0.1363,0.1373,0.1375,0.1375,0.138,0.138,0.1378,0.1381,0.1337,0.1374,0.1374,0.1374,0.1374,0.1373,0.1167,0.118,0.1196,0.1215,0.1227,0.1241,0.1255,0.1266,0.1283,0.1304,0.1308,0.1331,0.1347,0.1375,0.1386,0.1404,0.1401,0.1407,0.1409,0.1411,0.1413,0.1373,0.1407,0.1407,0.1407,0.1407,0.1407,0,0.1195,0.1206,0.1223,0.1244,0.1259,0.1259,0.1276,0.1289,0.1309,0.1324,0.1341,0.1366,0.1386,0.14,0.1421,0.1434,0.1435,0.1439,0.1439,0.1442,0.1414,0.1408,0.1438,0.1438,0.1438,0.1438,0.1438,0.1438,0.1211,0.1234,0.1241,0.1271,0.1282,0.1304,0.1314,0.1328,0.134,0.1368,0.1386,0.1395,0.141,0.1433,0.1453,0.1456,0.1465,0.1469,0.1473,0.1447,0.1444,0.1441,0.1436,0.1471,0.1471,0.1501,0.1501,0.1501]},{"header":{"parameterUnit":"m.s-1","parameterCategory":1,"la1":30.2991,"la2":30.254,"lo1":-89.0895,"lo2":-89.0444,"dy":0.0017,"dx":0.0017,"nx":28,"ny":28,"refTime":"2026-01-30T03:00:00:Z","depth":0,"parameterNumber":3,"parameterNumberName":"V-component_of_WINDS"},"data":[0,0,0,0,0,0,0,0,0,0,0,0,0,0,0,0,0,0,0,0,0,0,0,0,0,0,0,0,0,0,0,0,0,0,0,0,0,0,0,0,0,0,0,0,0,0,0,0,0,0,0,0,0,0,0,0,0,0,-0.5441,-0.5441,0,-0.5435,-0.5435,-0.5435,-0.544,-0.544,-0.544,-0.5441,-0.5433,-0.5432,-0.5432,0,0,0,0,0,0,0,0,0,0,0,0,0,-0.5457,-0.5456,-0.5441,-0.5441,-0.5441,-0.5435,-0.5435,-0.5435,-0.544,-0.544,-0.544,-0.5441,-0.5433,-0.5432,-0.5432,0,0,0,0,0,0,0,0,0,0,0,0,0,-0.545,-0.5456,-0.5441,-0.5443,-0.5443,-0.5435,-0.5435,-0.5435,-0.544,-0.544,-0.5441,-0.5441,-0.5433,-0.5432,-0.5432,-0.5421,0,0,-0.543,-0.5429,0,0,0,0,0,0,0,0,-0.5451,-0.545,-0.5443,-0.5443,-0.5443,-0.5439,-0.5437,-0.543,-0.544,-0.5441,-0.5441,-0.5441,-0.5434,-0.5433,-0.5432,-0.5421,-0.542,-0.543,-0.5429,-0.5429,-0.5429,0,0,0,0,0,0,0,-0.5451,-0.545,-0.5439,-0.5443,-0.5443,-0.5444,-0.5443,-0.5436,-0.5436,-0.5441,-0.5441,-0.5441,-0.5434,-0.5432,-0.5431,-0.542,-0.543,-0.5429,-0.5429,-0.5428,-0.54,-0.54,0,0,0,0,0,0,-0.5451,-0.545,-0.5439,-0.5439,-0.5448,-0.5443,-0.5443,-0.544,-0.5436,-0.5436,-0.544,-0.5441,-0.5433,-0.5432,-0.5431,-0.5418,-0.5429,-0.5428,-0.5428,-0.5401,-0.54,-0.54,0,0,0,0,0,0,-0.5452,-0.545,-0.5439,-0.5445,-0.5443,-0.5443,-0.5439,-0.5439,-0.5437,-0.5435,-0.5435,-0.5438,-0.5433,-0.5432,-0.5424,-0.5418,-0.5428,-0.5427,-0.5401,-0.54,-0.54,-0.5392,0,0,0,0,0,0,-0.5452,-0.545,-0.5447,-0.5444,-0.5443,-0.5432,-0.5439,-0.5439,-0.5436,-0.5437,-0.5433,-0.5433,-0.5433,-0.5424,-0.5423,-0.5417,-0.5427,-0.5401,-0.5401,-0.54,-0.5393,-0.5392,-0.539,0,0,0,0,0,-0.5453,-0.5445,-0.5447,-0.5445,-0.5438,-0.5432,-0.5431,-0.5432,-0.5436,-0.5432,-0.5431,-0.5433,-0.5419,-0.5424,-0.5422,-0.5416,-0.5402,-0.5401,-0.54,-0.5394,-0.5392,-0.539,0,0,0,0,0,0,-0.5446,-0.5444,-0.5446,-0.5438,-0.5435,-0.5433,-0.5428,-0.543,-0.5426,-0.5427,-0.5428,-0.5427,-0.5418,-0.5416,-0.5421,-0.5405,-0.5411,-0.541,-0.5407,-0.5405,-0.5404,-0.5404,-0.5426,0,0,0,0,0,-0.5443,-0.5439,-0.5438,-0.543,-0.5428,-0.5428,-0.5426,-0.5427,-0.5424,-0.5422,-0.5421,-0.5417,-0.5412,-0.5409,-0.5404,-0.5393,-0.5392,-0.5388,-0.5387,-0.5386,-0.5384,-0.5378,-0.5376,-0.5397,-0.5397,-0.5397,0,0,-0.5438,-0.5436,-0.5433,-0.5428,-0.5426,-0.5421,-0.5427,-0.5422,-0.5417,-0.5421,-0.5413,-0.5412,-0.5408,-0.5399,-0.5394,-0.5397,-0.5379,-0.5385,-0.5384,-0.5383,-0.5377,-0.5375,-0.5374,-0.5396,-0.5396,-0.5397,0,0,-0.5425,-0.5424,-0.5417,-0.5415,-0.5413,-0.5413,-0.5411,-0.5409,-0.5408,-0.54,-0.5403,-0.5398,-0.5389,-0.5386,-0.5384,-0.537,-0.5372,-0.5369,-0.5361,-0.5355,-0.5354,-0.5352,-0.5347,-0.5345,-0.5368,-0.5368,-0.5368,0,-0.5418,-0.5411,-0.5413,-0.5407,-0.5405,-0.5409,-0.5402,-0.54,-0.5395,-0.5393,-0.5396,-0.5385,-0.5383,-0.5373,-0.537,-0.5368,-0.5365,-0.5369,-0.5354,-0.5353,-0.5351,-0.5346,-0.5344,-0.5367,-0.5367,-0.5367,-0.5367,0,-0.5403,-0.5398,-0.5392,-0.5389,-0.5386,-0.5379,-0.538,-0.5376,-0.5378,-0.5377,-0.5369,-0.5367,-0.5361,-0.5359,-0.536,-0.5349,-0.5351,-0.5354,-0.5359,-0.5349,-0.5344,-0.5342,-0.5367,-0.5367,-0.5367,-0.5367,0,0,-0.5384,-0.5382,-0.538,-0.5379,-0.5376,-0.5372,-0.5366,-0.5361,-0.5358,-0.5355,-0.5349,-0.5341,-0.5345,-0.5342,-0.5343,-0.5337,-0.5326,-0.5341,-0.5341,-0.5338,-0.5313,-0.531,-0.5308,-0.5328,-0.5328,-0.5327,-0.5313,0,-0.5371,-0.536,-0.5362,-0.5352,-0.5347,-0.5351,-0.5345,-0.5343,-0.5342,-0.5338,-0.5337,-0.5332,-0.5337,-0.5335,-0.533,-0.5329,-0.5321,-0.533,-0.5322,-0.5322,-0.5322,-0.5305,-0.5302,-0.5288,-0.5311,-0.5311,-0.5311,0,-0.5354,-0.5351,-0.534,-0.5338,-0.5336,-0.5331,-0.5327,-0.5322,-0.532,-0.532,-0.5317,-0.5319,-0.5312,-0.5318,-0.5308,-0.5314,-0.5311,-0.531,-0.531,-0.5308,-0.5315,-0.5303,-0.5284,-0.5282,-0.5308,-0.5308,-0.5308,0,-0.5341,-0.5334,-0.5326,-0.5325,-0.5323,-0.5319,-0.5318,-0.5316,-0.5313,-0.5309,-0.5307,-0.5302,-0.53,-0.5296,-0.5296,-0.5301,-0.5286,-0.5292,-0.5285,-0.5285,-0.5281,-0.5281,-0.5261,-0.5281,-0.5281,-0.5281,-0.5281,0,-0.5325,-0.5318,-0.532,-0.5315,-0.5308,-0.531,-0.5302,-0.5301,-0.5299,-0.5294,-0.5298,-0.5293,-0.5294,-0.5289,-0.5289,-0.5281,-0.528,-0.5279,-0.5279,-0.5278,-0.5278,-0.5275,-0.5276,-0.528,-0.528,-0.528,-0.528,0,-0.5308,-0.531,-0.5302,-0.5301,-0.5301,-0.5295,-0.5294,-0.5289,-0.5289,-0.5283,-0.5281,-0.5281,-0.5276,-0.5276,-0.5269,-0.527,-0.5259,-0.526,-0.526,-0.526,-0.5252,-0.5253,-0.5229,-0.5226,-0.5248,-0.5248,-0.5248,0,-0.5298,-0.5293,-0.5291,-0.5289,-0.5287,-0.5283,-0.528,-0.5282,-0.5279,-0.5276,-0.5271,-0.5266,-0.5262,-0.5252,-0.5251,-0.5246,-0.5247,-0.5239,-0.5246,-0.5245,-0.5246,-0.5246,-0.5245,-0.5237,-0.5237,-0.5237,-0.5237,0,-0.5279,-0.528,-0.5276,-0.5272,-0.5269,-0.5266,-0.5264,-0.5261,-0.5263,-0.5259,-0.5254,-0.525,-0.5244,-0.5238,-0.5233,-0.5232,-0.5234,-0.5235,-0.5233,-0.5231,-0.5231,-0.523,-0.5255,-0.5235,-0.5235,-0.5235,-0.5235,-0.5235,-0.5264,-0.526,-0.5258,-0.5254,-0.5252,-0.525,-0.5245,-0.5245,-0.5241,-0.5236,-0.5238,-0.5231,-0.5229,-0.5223,-0.5221,-0.5215,-0.5218,-0.5215,-0.5214,-0.5213,-0.5212,-0.5233,-0.5214,-0.5215,-0.5215,-0.5215,-0.5215,0,-0.5245,-0.5244,-0.524,-0.5237,-0.5233,-0.5237,-0.5234,-0.5231,-0.5225,-0.5223,-0.5219,-0.5212,-0.5207,-0.5206,-0.5201,-0.5197,-0.5198,-0.5195,-0.5195,-0.5194,-0.521,-0.5212,-0.5194,-0.5194,-0.5194,-0.5194,-0.5194,-0.5194,-0.5234,-0.5226,-0.5227,-0.5219,-0.5218,-0.5212,-0.521,-0.5208,-0.5206,-0.5199,-0.5195,-0.5195,-0.5193,-0.5187,-0.5183,-0.5182,-0.518,-0.5177,-0.5177,-0.5191,-0.5193,-0.5195,-0.5197,-0.5176,-0.5176,-0.5161,-0.5161,-0.5161]}]]